Powrót do katalogu

CZ-6A DEB

AktywnyPO
NORAD 55535·DEBRIS·🇨🇳 China

Wystrzelony Nov 11, 2022 z Taiyuan Satellite Launch Center

Loading…

Następne Przeloty (najbliższe 24 godziny)

TLE

ŚwieżeSource: Space-Track

Epoka: Sep 13, 2026, 03:34 UTC

1 55535U 22151YH  26256.14889274  .00006830  00000-0  97726-3 0  9999
2 55535  98.6279 331.4684 0068282 356.5553   3.5175 14.75370382198158

Śledź CZ-6A DEB w czasie rzeczywistym z AllMySat

Download on the App Store